Charlotte, NC

3:48 AM EST on February 21, 2017 (GMT -0500)
Charlotte-Douglas International

Weather History for KCLT - October, 2012

Change the Weather History Date:

Saturday, October 6, 2012

  Actual Average Record
Temperature  
Mean Temperature 70 °F 64 °F  
Max Temperature 83 °F 75 °F 98 °F (1954)
Min Temperature 56 °F 52 °F 38 °F (1935)
Degree Days  
Heating Degree Days 0 3  
Month to date heating degree days 1 18  
Since 1 July heating degree days 7 41  
Cooling Degree Days 5 2  
Month to date cooling degree days 32 15  
Year to date cooling degree days 1787 1490  
Growing Degree Days 18 (Base 50)    
Moisture  
Dew Point 59 °F    
Average Humidity 67    
Maximum Humidity 93    
Minimum Humidity 40    
Precipitation  
Precipitation 0.15 in 0.12 in 1.98 in (2005)
Month to date precipitation 0.62 0.71  
Year to date precipitation 28.61 32.55  
Snow  
Snow 0.00 in 0.00 in 0.00 in ()
Month to date snowfall 0.0 0.0  
Since 1 July snowfall 0.0 0.0  
Since 1 September snowfall 0.0 0.0  
Snow Depth 0.00 in    
Sea Level Pressure  
Sea Level Pressure 29.95 in    
Wind  
Wind Speed 4 mph (South)    
Max Wind Speed 16 mph    
Max Gust Speed 22 mph    
Visibility 9 miles    
Events Rain    
T = Trace of Precipitation, MM = Missing Value Source: NWS Daily Summary

Daily Weather History Graph

Daily Weather History Graph

Search for Another Location

Airport or City:

Trip Planner

Search our weather history database for the weather conditions in past years. The results will help you decide how hot, cold, wet, or windy it might be!

Date:

Astronomy

Oct. 06, 2012 Rise Set
Actual Time 7:22 AM EDT 6:59 PM EDT
Civil Twilight 6:57 AM EDT 7:25 PM EDT
Nautical Twilight 6:28 AM EDT 7:54 PM EDT
Astronomical Twilight 5:58 AM EDT 8:24 PM EDT
Moon 11:24 PM EDT (10/6) 1:06 PM EDT (10/6)
Length of Visible Light 12h 27m
Length of Day
11h 37m
Waning Gibbous, 65% of the Moon is Illuminated
Oct 6
Waning Gibbous
Oct 8
Last Quarter
Oct 15
New
Oct 21
First Quarter
Oct 29
Full

Hourly Weather History & Observations

Time (EDT) Temp. Heat Index Dew Point Humidity Pressure Visibility Wind Dir Wind Speed Gust Speed Precip Events Conditions
12:52 AM 62.1 °F - 57.9 °F 86% 30.02 in 10.0 mi Calm Calm - N/A   Clear
1:52 AM 60.1 °F - 57.0 °F 90% 30.01 in 10.0 mi Calm Calm - N/A   Clear
2:52 AM 61.0 °F - 57.9 °F 90% 29.99 in 10.0 mi SSE 3.5 mph - N/A   Clear
3:52 AM 60.1 °F - 57.9 °F 93% 29.97 in 10.0 mi SSW 3.5 mph - N/A   Clear
4:52 AM 61.0 °F - 57.9 °F 90% 29.96 in 10.0 mi Calm Calm - N/A   Clear
5:52 AM 60.1 °F - 57.9 °F 93% 29.96 in 8.0 mi South 4.6 mph - N/A   Clear
6:52 AM 59.0 °F - 57.0 °F 93% 29.98 in 8.0 mi Calm Calm - N/A   Clear
7:52 AM 60.1 °F - 57.9 °F 93% 29.98 in 9.0 mi Calm Calm - N/A   Partly Cloudy
8:52 AM 64.0 °F - 61.0 °F 90% 30.00 in 8.0 mi West 3.5 mph - N/A   Partly Cloudy
9:52 AM 66.9 °F - 61.0 °F 81% 29.99 in 10.0 mi South 3.5 mph - N/A   Partly Cloudy
10:52 AM 72.0 °F - 61.0 °F 68% 29.96 in 10.0 mi South 6.9 mph - N/A   Partly Cloudy
11:52 AM 75.9 °F - 59.0 °F 56% 29.95 in 10.0 mi SSW 5.8 mph - N/A   Partly Cloudy
12:52 PM 78.1 °F - 57.0 °F 48% 29.95 in 10.0 mi Calm Calm - N/A   Scattered Clouds
1:52 PM 80.1 °F 80.7 °F 59.0 °F 48% 29.93 in 10.0 mi Variable 6.9 mph - N/A   Scattered Clouds
2:52 PM 82.0 °F 81.6 °F 55.9 °F 41% 29.91 in 10.0 mi Variable 4.6 mph - N/A   Scattered Clouds
3:52 PM 81.0 °F 81.0 °F 57.0 °F 44% 29.90 in 10.0 mi SW 3.5 mph - N/A   Mostly Cloudy
4:52 PM 80.1 °F 80.2 °F 55.9 °F 43% 29.88 in 10.0 mi Calm Calm - N/A   Mostly Cloudy
5:52 PM 79.0 °F - 57.9 °F 48% 29.89 in 10.0 mi SSW 3.5 mph - N/A   Mostly Cloudy
6:52 PM 75.9 °F - 59.0 °F 56% 29.91 in 10.0 mi Calm Calm - N/A   Mostly Cloudy
7:52 PM 73.0 °F - 59.0 °F 61% 29.92 in 8.0 mi Calm Calm - 0.00 in Rain Light Rain
8:21 PM 69.8 °F - 64.4 °F 83% 29.96 in 1.8 mi North 8.1 mph - 0.09 in Rain Heavy Rain
8:26 PM 69.8 °F - 64.4 °F 83% 29.97 in 5.0 mi NNW 10.4 mph - 0.11 in Rain Rain
8:52 PM 68.0 °F - 64.0 °F 87% 29.94 in 10.0 mi North 10.4 mph - 0.12 in Rain Light Rain
9:52 PM 68.0 °F - 64.0 °F 87% 29.95 in 10.0 mi NE 8.1 mph - 0.01 in   Overcast
10:52 PM 66.0 °F - 60.1 °F 81% 29.96 in 8.0 mi NE 12.7 mph - 0.00 in Rain Light Rain
11:52 PM 63.0 °F - 59.0 °F 87% 29.97 in 10.0 mi NE 11.5 mph 19.6 mph 0.02 in   Overcast